Home   Weather   Wismar   Past weeks

Flag for Germany Past Weather in Wismar, Mecklenburg-Western Pomerania, Germany — Yesterday and Last 2 Weeks

43 °F


Feels Like: 43 °F
Forecast: 45 / 52 °F
Wind: No wind

Location: Laage

Current Time: Oct 25, 2016 at 12:01:17 AM

Latest Report: Oct 24, 2016 at 11:20 PM

Visibility: 2 mi

Pressure: 30.07 "Hg

Humidity: 93%

Dew Point: 41 °F

Location of WismarLocation

Past Weather in Wismar — Graph


Wismar Temperature Yesterday

Maximum temperature yesterday: 50 °F (at 2:20 PM)
Minimum temperature yesterday: 41 °F (at 3:20 AM)
Average temperature yesterday: 45 °F

High & Low Weather Summary for the Past Weeks

High52 °F (Oct 18, 2:20 PM)100% (Oct 9, 11:20 PM)30.30 "Hg (Oct 9, 11:20 PM)
Low34 °F (Oct 10, 6:20 AM)67% (Oct 14, 4:20 PM)29.89 "Hg (Oct 15, 7:20 AM)
Average45 °F91%30.09 "Hg
* Reported Oct 9 10:20 PM — Oct 24 10:20 PM, Wismar, Weather by CustomWeather, © 2016

Note: Actual official high and low records may vary slightly from our data, if they occured in-between our weather recording intervals... More about our weather records


Wismar Weather History for the Previous 24 Hours

Scroll right to see more
Time TempWeatherWind HumidityBarometerVisibility
10:20 PM
Mon, Oct 24
45 °FFog.5 mph93%30.04 "Hg3 mi
9:20 PM45 °FOvercast.6 mph93%30.07 "Hg4 mi
8:46 PM45 °FLow clouds.3 mph93%30.07 "Hg4 mi
8:20 PM45 °FOvercast.3 mph93%30.07 "Hg5 mi
7:20 PM46 °FPassing clouds.3 mph87%30.07 "Hg5 mi
7:04 PM46 °FPassing clouds.3 mph87%30.07 "Hg5 mi
6:20 PM46 °FPassing clouds.3 mph87%30.07 "Hg4 mi
5:20 PM48 °FPartly sunny.3 mph82%30.07 "Hg4 mi
4:20 PM50 °FPartly sunny.5 mph76%30.04 "Hg4 mi
3:20 PM50 °FPartly sunny.7 mph76%30.04 "Hg4 mi
2:20 PM50 °FPartly sunny.9 mph76%30.07 "Hg4 mi
1:20 PM48 °FBroken clouds.6 mph82%30.07 "Hg4 mi
12:20 PM46 °FFog.6 mph87%30.07 "Hg3 mi
11:48 AM46 °FFog.8 mph87%30.07 "Hg2 mi
11:20 AM45 °FFog.7 mph93%30.07 "Hg1 mi
10:49 AM45 °FFog.7 mph93%30.07 "Hg1 mi
10:20 AM45 °FFog.8 mph93%30.07 "Hg1 mi
9:20 AM43 °FFog.7 mph100%30.07 "Hg0 mi
8:20 AM43 °FFog.7 mph100%30.07 "Hg0 mi
8:03 AM43 °FFog.6 mph100%30.07 "Hg0 mi
7:20 AM43 °FFog.5 mph100%30.04 "Hg1 mi
6:20 AM43 °FFog.6 mph100%30.04 "Hg1 mi
6:02 AM43 °FFog.6 mph100%30.04 "Hg1 mi
5:48 AM43 °FFog.6 mph93%30.04 "Hg1 mi
5:20 AM43 °FFog.6 mph93%30.04 "Hg1 mi
4:20 AM43 °FFog.7 mph93%30.04 "Hg1 mi
3:20 AM41 °FFog.6 mph100%30.04 "Hg2 mi
2:20 AM43 °FFog.6 mph93%30.04 "Hg1 mi
1:20 AM43 °FFog.5 mph93%30.04 "Hg1 mi
12:50 AM43 °FFog.6 mph93%30.04 "Hg1 mi
12:20 AM43 °FFog.6 mph93%30.04 "Hg2 mi
Weather by CustomWeather, © 2016

See weather overviewHow to use our weather pages